{"data":{"norad_id":61516,"epoch":"2026-05-25T03:37:35.301792Z","epoch_age_seconds":59177,"freshness":"FRESH","line1":"1 61516U 24183H   26145.15110303  .00000320  00000+0  22079-4 0  9997","line2":"2 61516  53.1603 146.9615 0001373  85.2180 274.8979 15.31709253 91360","mean_motion":15.31709253,"eccentricity":0.0001373,"inclination_deg":53.1603,"raan_deg":146.9615,"arg_perigee_deg":85.218,"mean_anomaly_deg":274.8979,"bstar":2.2079e-5,"rev_number":9136,"period_min":94.012620030833,"perigee_km":469.77206562863,"apogee_km":471.65275967735,"semimajor_km":6848.849412653,"source":"CELESTRAK","updated_at":"2026-05-25T13:38:19.369790Z"}}